Date String (YYYY-MM-DD hh:mm:ss) UTC,Instrument flags,absolute air pressure of the measurement (hPa),sample flow rate (lpm),inlet stack bypass flow (lpm),air temperature of the measurement (°C),ambient temperature measured by the external sensor (°C),aerosol sample conditioner tube jacket temperature (°C),OPC LED temperature (°C),internal box temperature (°C),relative humidity of the measurement (%),span deviation,mass concentration of particles derived from Lorenz-Mie calculation of OPC scattering (μg/m³),mass concentration of particles derived from Lorenz-Mie calculation of OPC scattering (μg/m³),mass concentration of particles derived from Lorenz-Mie calculation of OPC scattering (μg/m³)
DateTimeUTC,F1_M11,P_M11,Q1_M11,Q2_M11,T1_M11,T2_M11,T3_M11,T4_M11,T5_M11,U1_M11,ZSPAN_M11,X2_M11,X0_M11,X1_M11
2023-07-01 07:00:00,SystemResetWarning,0834.7,5.00,000.00,029.8,028.3,000.0,038.3,031.2,21.8,0000.0,0002.90,0004.15,0002.54
2023-07-01 07:01:00,SystemResetWarning,0834.5,4.99,000.00,029.8,028.3,000.0,038.3,031.2,21.7,0000.0,0002.92,0004.25,0002.53
2023-07-01 07:02:00,SystemResetWarning,0834.5,5.00,000.00,029.8,028.3,000.0,038.4,031.2,21.6,0000.0,0002.93,0004.26,0002.52
2023-07-01 07:03:00,SystemResetWarning,0834.5,4.99,000.00,029.8,028.3,000.0,038.4,031.3,21.6,0000.0,0002.89,0004.12,0002.50
2023-07-01 07:04:00,SystemResetWarning,0834.5,5.00,000.00,029.8,028.3,000.0,038.4,031.2,21.5,0000.0,0002.89,0004.13,0002.50
2023-07-01 07:05:00,SystemResetWarning,0834.5,5.00,000.00,029.8,028.3,000.0,038.4,031.2,21.5,0000.0,0002.90,0004.14,0002.49
2023-07-01 07:06:00,SystemResetWarning,0834.5,5.00,000.00,029.8,028.3,000.0,038.4,031.2,21.5,0000.0,0002.90,0004.27,0002.48
2023-07-01 07:07:00,SystemResetWarning,0834.5,5.00,000.00,029.8,028.4,000.0,038.4,031.3,21.5,0000.0,0002.94,0004.26,0002.49
2023-07-01 07:08:00,SystemResetWarning,0834.4,5.01,000.00,029.8,028.4,000.0,038.4,031.3,21.5,0000.0,0002.91,0004.06,0002.48
2023-07-01 07:09:00,SystemResetWarning,0834.4,5.00,000.00,029.8,028.4,000.0,038.4,031.3,21.4,0000.0,0002.95,0003.95,0002.48
2023-07-01 07:10:00,SystemResetWarning,0834.4,5.00,000.00,029.8,028.4,000.0,038.4,031.3,21.4,0000.0,0002.97,0004.01,0002.49
2023-07-01 07:11:00,SystemResetWarning,0834.4,4.99,000.00,029.8,028.4,000.0,038.4,031.3,21.5,0000.0,0002.99,0004.14,0002.49
2023-07-01 07:12:00,SystemResetWarning,0834.3,5.00,000.00,029.8,028.4,000.0,038.4,031.3,21.6,0000.0,0002.97,0004.08,0002.49
2023-07-01 07:13:00,SystemResetWarning,0834.3,4.99,000.00,029.8,028.4,000.0,038.4,031.3,21.7,0000.0,0002.95,0004.08,0002.48
2023-07-01 07:14:00,SystemResetWarning,0834.4,5.00,000.00,029.8,028.4,000.0,038.4,031.2,21.6,0000.0,0002.98,0004.12,0002.49
2023-07-01 07:15:00,SystemResetWarning,0834.4,5.01,000.00,029.8,028.4,000.0,038.4,031.3,21.6,0000.0,0002.99,0004.16,0002.49
2023-07-01 07:16:00,SystemResetWarning,0834.3,5.01,000.00,029.8,028.4,000.0,038.4,031.3,21.5,0000.0,0002.98,0004.15,0002.50
2023-07-01 07:17:00,SystemResetWarning,0834.3,4.99,000.00,029.8,028.4,000.0,038.4,031.3,21.4,0000.0,0002.98,0004.21,0002.50
2023-07-01 07:18:00,SystemResetWarning,0834.4,4.99,000.00,029.8,028.4,000.0,038.4,031.3,21.4,0000.0,0002.95,0004.21,0002.50
2023-07-01 07:19:00,SystemResetWarning,0834.5,5.01,000.00,029.8,028.4,000.0,038.4,031.3,21.4,0000.0,0002.96,0004.19,0002.51
2023-07-01 07:20:00,SystemResetWarning,0834.4,5.01,000.00,029.8,028.4,000.0,038.4,031.3,21.3,0000.0,0002.91,0004.66,0002.51
2023-07-01 07:21:00,SystemResetWarning,0834.2,5.01,000.00,029.8,028.4,000.0,038.4,031.3,21.4,0000.0,0002.90,0004.67,0002.51
2023-07-01 07:22:00,SystemResetWarning,0834.4,4.99,000.00,029.8,028.3,000.0,038.4,031.3,21.4,0000.0,0002.92,0005.37,0002.50
2023-07-01 07:23:00,SystemResetWarning,0834.5,4.99,000.00,029.8,028.3,000.0,038.4,031.3,21.4,0000.0,0002.96,0006.09,0002.51
2023-07-01 07:24:00,SystemResetWarning,0834.5,5.00,000.00,029.8,028.3,000.0,038.4,031.3,21.5,0000.0,0002.99,0006.08,0002.53
2023-07-01 07:25:00,SystemResetWarning,0834.5,5.01,000.00,029.8,028.3,000.0,038.4,031.3,21.5,0000.0,0002.98,0006.08,0002.53
2023-07-01 07:26:00,SystemResetWarning,0834.3,5.00,000.00,029.8,028.3,000.0,038.4,031.2,21.5,0000.0,0002.97,0006.09,0002.53
2023-07-01 07:27:00,SystemResetWarning,0834.3,5.00,000.00,029.8,028.3,000.0,038.4,031.2,21.4,0000.0,0002.99,0006.12,0002.52
2023-07-01 07:28:00,SystemResetWarning,0834.2,5.00,000.00,029.8,028.3,000.0,038.4,031.3,21.2,0000.0,0002.99,0006.00,0002.52
2023-07-01 07:29:00,SystemResetWarning,0834.2,4.99,000.00,029.8,028.3,000.0,038.4,031.2,21.1,0000.0,0002.98,0005.77,0002.51
2023-07-01 07:30:00,SystemResetWarning,0834.2,5.01,000.00,029.8,028.3,000.0,038.4,031.2,21.0,0000.0,0003.02,0006.27,0002.50
2023-07-01 07:31:00,SystemResetWarning,0834.1,5.01,000.00,029.8,028.3,000.0,038.4,031.2,20.9,0000.0,0003.02,0005.86,0002.49
2023-07-01 07:32:00,SystemResetWarning,0834.1,5.00,000.00,029.8,028.3,000.0,038.4,031.3,20.8,0000.0,0003.01,0005.72,0002.49
2023-07-01 07:33:00,SystemResetWarning,0834.1,4.99,000.00,029.8,028.3,000.0,038.4,031.3,20.8,0000.0,0002.99,0005.04,0002.50
2023-07-01 07:34:00,SystemResetWarning,0834.1,4.99,000.00,029.8,028.3,000.0,038.4,031.2,20.9,0000.0,0002.95,0004.23,0002.49
2023-07-01 07:35:00,SystemResetWarning,0834.1,4.99,000.00,029.8,028.3,000.0,038.4,031.2,20.8,0000.0,0002.91,0004.17,0002.46
2023-07-01 07:36:00,SystemResetWarning,0834.1,5.01,000.00,029.8,028.3,000.0,038.4,031.2,20.7,0000.0,0002.94,0004.23,0002.46
2023-07-01 07:37:00,SystemResetWarning,0834.0,5.01,000.00,029.8,028.3,000.0,038.4,031.2,20.7,0000.0,0002.95,0004.31,0002.47
2023-07-01 07:38:00,SystemResetWarning,0834.0,5.00,000.00,029.8,028.3,000.0,038.4,031.2,20.7,0000.0,0002.99,0004.47,0002.47
2023-07-01 07:39:00,SystemResetWarning,0834.0,5.00,000.00,029.8,028.3,000.0,038.4,031.2,20.7,0000.0,0002.98,0004.48,0002.46
2023-07-01 07:40:00,SystemResetWarning,0834.0,5.00,000.00,029.8,028.3,000.0,038.4,031.2,20.7,0000.0,0002.99,0004.47,0002.46
2023-07-01 07:41:00,SystemResetWarning,0834.0,5.01,000.00,029.8,028.3,000.0,038.4,031.2,20.7,0000.0,0002.94,0003.96,0002.46
2023-07-01 07:42:00,SystemResetWarning,0834.0,5.00,000.00,029.8,028.3,000.0,038.4,031.2,20.7,0000.0,0002.93,0003.94,0002.47
2023-07-01 07:43:00,SystemResetWarning,0833.9,5.00,000.00,029.8,028.3,000.0,038.4,031.2,20.7,0000.0,0002.94,0004.00,0002.47
2023-07-01 07:44:00,SystemResetWarning,0833.9,5.00,000.00,029.8,028.3,000.0,038.4,031.2,20.8,0000.0,0002.91,0004.02,0002.46
2023-07-01 07:45:00,SystemResetWarning,0833.9,5.00,000.00,029.8,028.3,000.0,038.4,031.2,20.8,0000.0,0002.95,0004.14,0002.48
2023-07-01 07:46:00,SystemResetWarning,0833.9,5.00,000.00,029.8,028.3,000.0,038.4,031.3,20.9,0000.0,0002.99,0004.22,0002.50
2023-07-01 07:47:00,SystemResetWarning,0833.9,5.00,000.00,029.8,028.3,000.0,038.4,031.2,20.8,0000.0,0002.95,0004.16,0002.50
2023-07-01 07:48:00,SystemResetWarning,0833.9,4.99,000.00,029.8,028.3,000.0,038.4,031.2,20.8,0000.0,0002.89,0003.94,0002.49
2023-07-01 07:49:00,SystemResetWarning,0833.9,5.00,000.00,029.8,028.3,000.0,038.4,031.2,20.7,0000.0,0002.84,0003.79,0002.49
2023-07-01 07:50:00,SystemResetWarning,0833.9,5.00,000.00,029.8,028.3,000.0,038.4,031.3,20.8,0000.0,0002.88,0003.91,0002.50
2023-07-01 07:51:00,SystemResetWarning,0833.9,5.00,000.00,029.8,028.3,000.0,038.4,031.3,20.6,0000.0,0002.86,0003.89,0002.50
2023-07-01 07:52:00,SystemResetWarning,0833.9,5.01,000.00,029.8,028.3,000.0,038.4,031.3,20.8,0000.0,0002.86,0003.93,0002.51
2023-07-01 07:53:00,SystemResetWarning,0833.8,5.00,000.00,029.8,028.3,000.0,038.4,031.2,21.0,0000.0,0002.87,0004.06,0002.50
2023-07-01 07:54:00,SystemResetWarning,0833.9,5.00,000.00,029.8,028.3,000.0,038.4,031.2,21.0,0000.0,0002.86,0003.99,0002.51
2023-07-01 07:55:00,SystemResetWarning,0833.9,5.00,000.00,029.8,028.3,000.0,038.4,031.2,21.0,0000.0,0002.88,0003.93,0002.52
2023-07-01 07:56:00,SystemResetWarning,0834.1,5.00,000.00,029.8,028.3,000.0,038.4,031.2,21.0,0000.0,0002.86,0003.86,0002.51
2023-07-01 07:57:00,SystemResetWarning,0833.9,5.00,000.00,029.8,028.3,000.0,038.4,031.2,20.8,0000.0,0002.84,0003.80,0002.50
2023-07-01 07:58:00,SystemResetWarning,0833.8,5.01,000.00,029.8,028.3,000.0,038.4,031.2,20.6,0000.0,0002.86,0003.82,0002.51
2023-07-01 07:59:00,SystemResetWarning,0833.9,5.00,000.00,029.8,028.3,000.0,038.4,031.3,20.6,0000.0,0002.91,0003.93,0002.52
